[[{"header":{"parameterUnit":"m.s-1","parameterCategory":1,"la1":30.2992,"la2":30.254,"lo1":-89.0895,"lo2":-89.0443,"dy":0.0025,"dx":0.0025,"nx":19,"ny":19,"refTime":"2026-05-06T03:00:00:Z","depth":0,"parameterNumber":2,"parameterNumberName":"U-component_of_WINDS"},"data":[0,0,0,-0.6628,-0.6626,-0.6553,-0.6552,-0.6458,-0.6457,0,0,0,0,0,0,0,0,0,0,0,-0.6652,-0.6651,-0.6628,-0.6626,-0.6553,-0.6552,-0.6458,-0.6457,0,0,0,0,0,0,0,0,0,0,0,-0.6652,-0.6652,-0.6651,-0.6626,-0.6553,-0.6552,-0.6458,-0.6514,0,0,0,0,0,0,0,0,0,0,-0.6585,-0.661,-0.6652,-0.6651,-0.6625,-0.6553,-0.6552,-0.6516,-0.651,-0.6492,0,-0.6479,0,-0.6466,-0.6451,-0.6451,0,0,0,-0.6624,-0.6615,-0.6593,-0.6651,-0.6625,-0.6553,-0.6585,-0.6513,-0.6506,-0.6484,-0.6477,-0.6474,-0.6465,-0.6451,-0.645,-0.6355,-0.6354,0,0,-0.6628,-0.664,-0.6598,-0.6589,-0.6603,-0.6588,-0.6583,-0.6509,-0.6501,-0.6477,-0.6472,-0.6463,-0.645,-0.6449,-0.6355,-0.6355,0,0,0,-0.6641,-0.6643,-0.6622,-0.6593,-0.658,-0.6585,-0.658,-0.6505,-0.6497,-0.647,-0.6462,-0.6449,-0.6448,-0.6355,-0.6355,-0.6347,0,0,0,-0.6644,-0.665,-0.6624,-0.6631,-0.6581,-0.6542,-0.6578,-0.6502,-0.6494,-0.6463,-0.6449,-0.6447,-0.6356,-0.6355,-0.6348,-0.6342,0,0,0,-0.6656,-0.6652,-0.6642,-0.6632,-0.66,-0.6543,-0.6531,-0.65,-0.6489,-0.6451,-0.6447,-0.6356,-0.6355,-0.6349,-0.6343,-0.6318,0,0,0,-0.6672,-0.6639,-0.6642,-0.6601,-0.6601,-0.6539,-0.6531,-0.6485,-0.6452,-0.6449,-0.6356,-0.6355,-0.635,-0.6344,-0.6319,-0.6297,-0.629,0,0,-0.6636,-0.6635,-0.6609,-0.661,-0.6551,-0.655,-0.6488,-0.6447,-0.6433,-0.6381,-0.6378,-0.6348,-0.6344,-0.6318,-0.6248,-0.6242,0,0,0,-0.6601,-0.6583,-0.6564,-0.6533,-0.65,-0.647,-0.6437,-0.6421,-0.6376,-0.6409,-0.6333,-0.6329,-0.6314,-0.6303,-0.6298,-0.6282,-0.6351,-0.6351,-0.6351,-0.6568,-0.6549,-0.6504,-0.6476,-0.6446,-0.6409,-0.6382,-0.6353,-0.6346,-0.6328,-0.6312,-0.6272,-0.626,-0.6256,-0.624,-0.6301,-0.6301,-0.6301,-0.6301,-0.6511,-0.6481,-0.6468,-0.642,-0.64,-0.6358,-0.632,-0.6315,-0.6272,-0.6283,-0.6269,-0.6282,-0.625,-0.6235,-0.63,-0.63,-0.63,-0.63,-0.63,-0.6486,-0.6468,-0.6448,-0.6397,-0.636,-0.6332,-0.6289,-0.6273,-0.6257,-0.6243,-0.6222,-0.6222,-0.6218,-0.6234,-0.6234,-0.6234,-0.6234,-0.6234,-0.6234,-0.6467,-0.6445,-0.6412,-0.6371,-0.6346,-0.631,-0.627,-0.6245,-0.6211,-0.6203,-0.6202,-0.6194,-0.6251,-0.6265,-0.6231,-0.6232,-0.6232,-0.6232,-0.6233,-0.6415,-0.6423,-0.6372,-0.6347,-0.6294,-0.6255,-0.6234,-0.6182,-0.6158,-0.6136,-0.613,-0.6176,-0.6173,-0.6177,-0.6188,-0.6136,-0.6136,-0.6136,-0.6136,-0.6393,-0.6389,-0.6331,-0.629,-0.6249,-0.6223,-0.6161,-0.6127,-0.6094,-0.6077,-0.6081,-0.6095,-0.61,-0.6094,-0.6099,-0.6109,-0.6039,-0.6039,-0.6039,-0.6358,-0.6349,-0.6301,-0.6269,-0.6225,-0.6186,-0.6126,-0.6078,-0.6041,-0.6034,-0.6062,-0.6066,-0.6087,-0.6096,-0.6091,-0.61,-0.6117,0,0]},{"header":{"parameterUnit":"m.s-1","parameterCategory":1,"la1":30.2992,"la2":30.254,"lo1":-89.0895,"lo2":-89.0443,"dy":0.0025,"dx":0.0025,"nx":19,"ny":19,"refTime":"2026-05-06T03:00:00:Z","depth":0,"parameterNumber":3,"parameterNumberName":"V-component_of_WINDS"},"data":[0,0,0,-0.9794,-0.979,-0.9597,-0.9596,-0.9353,-0.935,0,0,0,0,0,0,0,0,0,0,0,-0.9857,-0.9856,-0.9795,-0.979,-0.9597,-0.9596,-0.9353,-0.935,0,0,0,0,0,0,0,0,0,0,0,-0.9858,-0.9856,-0.9854,-0.9789,-0.9597,-0.9596,-0.9353,-0.9497,0,0,0,0,0,0,0,0,0,0,-0.9684,-0.9748,-0.9857,-0.9854,-0.9788,-0.9597,-0.9596,-0.9504,-0.9488,-0.9443,0,-0.9407,0,-0.9375,-0.9335,-0.9334,0,0,0,-0.9785,-0.9762,-0.9705,-0.9854,-0.9786,-0.9598,-0.9683,-0.9495,-0.9477,-0.9422,-0.9403,-0.9394,-0.9371,-0.9333,-0.9332,-0.9093,-0.9092,0,0,-0.9795,-0.9825,-0.9717,-0.9694,-0.9727,-0.9689,-0.9677,-0.9484,-0.9465,-0.9403,-0.9388,-0.9367,-0.9332,-0.933,-0.9093,-0.9092,0,0,0,-0.983,-0.9832,-0.978,-0.9704,-0.9669,-0.9683,-0.9669,-0.9473,-0.9454,-0.9386,-0.9364,-0.933,-0.9327,-0.9094,-0.9093,-0.9076,0,0,0,-0.9836,-0.9852,-0.9785,-0.9801,-0.9673,-0.9569,-0.9663,-0.9467,-0.9445,-0.9366,-0.933,-0.9325,-0.9095,-0.9094,-0.9079,-0.9062,0,0,0,-0.9868,-0.9856,-0.983,-0.9803,-0.9721,-0.9572,-0.9541,-0.9462,-0.9432,-0.9334,-0.9324,-0.9096,-0.9094,-0.9081,-0.9065,-0.9004,0,0,0,-0.991,-0.9819,-0.9831,-0.9721,-0.9723,-0.9565,-0.9542,-0.9423,-0.9337,-0.9329,-0.9095,-0.9093,-0.9082,-0.9067,-0.9006,-0.8954,-0.8937,0,0,-0.9811,-0.9808,-0.9741,-0.9746,-0.9593,-0.9592,-0.9435,-0.9328,-0.9292,-0.916,-0.9154,-0.9078,-0.9065,-0.9004,-0.8836,-0.8823,0,0,0,-0.9719,-0.9671,-0.9624,-0.9545,-0.9463,-0.9389,-0.9304,-0.9263,-0.915,-0.9232,-0.9041,-0.9032,-0.8995,-0.8968,-0.8957,-0.892,-0.9084,-0.9084,-0.9084,-0.9619,-0.9578,-0.9463,-0.9398,-0.9321,-0.9234,-0.9166,-0.9096,-0.9077,-0.9033,-0.8992,-0.8895,-0.8866,-0.8857,-0.882,-0.8965,-0.8965,-0.8965,-0.8965,-0.9467,-0.939,-0.9367,-0.9247,-0.9203,-0.91,-0.9011,-0.9001,-0.8896,-0.8924,-0.8888,-0.8918,-0.8843,-0.8808,-0.8963,-0.8964,-0.8964,-0.8964,-0.8964,-0.9393,-0.9348,-0.9303,-0.9182,-0.9093,-0.9031,-0.8931,-0.8895,-0.886,-0.8826,-0.8776,-0.8776,-0.8767,-0.8806,-0.8805,-0.8805,-0.8805,-0.8805,-0.8804,-0.9331,-0.9281,-0.9202,-0.9107,-0.905,-0.897,-0.888,-0.8822,-0.8747,-0.8728,-0.8728,-0.8709,-0.8846,-0.8878,-0.8799,-0.88,-0.88,-0.8801,-0.8801,-0.9184,-0.9211,-0.909,-0.9033,-0.8916,-0.8827,-0.8784,-0.8668,-0.8614,-0.8565,-0.8555,-0.8664,-0.8657,-0.8666,-0.8691,-0.8568,-0.8568,-0.8568,-0.8568,-0.9117,-0.9112,-0.8978,-0.8888,-0.8796,-0.8745,-0.8603,-0.8532,-0.8462,-0.8425,-0.8439,-0.8472,-0.8483,-0.8469,-0.8482,-0.8505,-0.8337,-0.8337,-0.8337,-0.9021,-0.9005,-0.8893,-0.8828,-0.8734,-0.8652,-0.8516,-0.841,-0.8337,-0.8327,-0.8394,-0.8404,-0.8457,-0.8477,-0.8464,-0.8485,-0.8527,0,0]}]]